Weather in Istochnoe

Russia / Republic of Crimea     45°54′03″N   34°01′09″E
temp.,
°C
wind,
m/s
gust,
m/s
humid.,
%
clouds,
%
prec.,
mm/h
press.,
hPa
HPBL,
m
3 march, wed
wed300:00+4wsw8158320 0.0 1023532
03:00+4nnw7108159 0.0 1022600
06:00+4nw61179100 0.0 1022665
09:00+3nnw8118078 0.0 1025839
12:00+6nnw686524 0.0 1026794
15:00+8nnw575012 0.0 10261194
18:00+7nnw35530 0.0 1026192
21:00+5nnw33630 0.0 102830
4 march, thu
thu400:00+4wnw11680 0.0 102722
03:00+3sw23720 0.0 102725
06:00+2sw44860 0.0 102568
09:00+4sw58770 0.0 1024330
12:00+9wsw68570 0.0 1022930
15:00+10wsw78570 0.0 1020992
18:00+8sw711650 0.0 1018662
21:00+5sw814780 0.0 1018512
5 march, fri
fri500:00+5sw815760 0.0 1017500
03:00+5sw715830 0.0 1016468
06:00+5sw7148650 0.0 1015396
09:00+7sw8137948 0.0 1014431
12:00+11sw9126331 0.0 1013649
15:00+13sw9125419 0.0 1011889
18:00+10sw8126790 0.0 1010595
21:00+8sw8148493 0.0 1011402
6 march, sat
sat600:00+7sw71291100 0.0 1012308
03:00+6w479273 0.0 1013144
06:00+4n598797 0.0 1015364
09:00+2n799299 0.1 1017527
12:00+3n6867100 0.6 1018837
15:00+5n6846100 0.6 10191093
18:00+4n6845100 0.0 10211124
21:00+3n61050100 0.0 1025782
7 march, sun
sun700:00+1n584533 0.0 1026395
03:000nnw344417 0.0 1027203
06:00−1w23500 0.0 102799
09:00+1sw45430 0.0 1027351
12:00+4wsw79420 0.0 10271788
15:00+5w910460 0.0 10241517
18:00+3w710530 0.0 10221100
21:00+1sw59630 0.0 1022331